    Orbital elements:
    2017 US                                                  Earth MOID = 0.0058 AU
    Epoch 2017 Sept. 4.0 TT = JDT 2458000.5                 MPC
    M 133.66654              (2000.0)            P               Q
    n   1.30567289     Peri.  357.40580     -0.95166681     +0.30708053
    a   0.8290482      Node   200.48031     -0.28149732     -0.87943505
    e   0.2298536      Incl.    0.92393     -0.12283951     -0.36372455
    P   0.75           H   26.2           G   0.15           U   7
    Residuals in seconds of arc
    171016 703  0.2-  0.3-    171017 204  0.0   0.0     171018 I52  0.1-  0.1-
    171016 703  0.6+  0.3+    171017 204  0.0   0.1+    171018 246  0.2-  0.4+
    171016 703  0.3-  1.4-    171017 204  0.1-  0.2-    171018 246  0.0   0.1+
    171016 I52  0.1+  0.2+    171017 160  0.1-  0.2+    171018 246  0.5-  0.5-
    171016 I52  0.2+  0.2-    171017 160  0.0   0.0     171018 246  0.7-  0.3+
    171016 I52  0.1+  0.1+    171017 160  0.1+  0.3+    171018 246  0.1-  0.1-
    171016 I52  0.3+  0.0     171017 160  0.3+  0.5+    171018 246  0.3-  1.0-
    171016 703  0.6+  0.7+    171017 160  0.2+  0.3+    171018 246  0.4+  0.1-
    171016 703  1.0-  0.6+    171017 L01  0.2+  0.1-    171018 246  0.1+  0.1+
    171016 703  0.5-  0.1+    171017 L01  0.2-  0.2+    171018 246  0.2-  0.1+
    171016 703  0.8+  0.5+    171017 585  0.1+  0.1+    171018 587  0.4+  0.8-
    171016 246  0.3+  0.2-    171017 585  0.1-  0.0     171018 587  0.5+  0.8-
    171016 246  0.4-  0.3-    171017 585  0.0   0.1-    171018 K88  0.1+  0.3+
    171016 246  0.2-  0.4-    171017 585  0.0   0.1-    171018 K88  0.0   0.4+
    171016 246  0.6-  0.5+    171018 G96  0.2+  0.2+    171018 K88  0.0   0.5+
    171016 246  0.1+  0.7-    171018 G96  0.9+  0.3+    171018 J04  0.1+  0.0
    171016 246  0.6+  0.1+    171018 G96  0.5-  0.5-    171018 J04  0.1-  0.1+
    171016 K63  0.1-  0.2-    171018 G96  0.0   0.0     171018 J04  0.0   0.0
    171016 K63  0.3+  0.1+    171018 W25  0.2-  0.3-    171019 104  0.1+  0.3+
    171016 K63  0.4-  0.8-    171018 W25  0.6-  0.4-    171019 104  0.2+  0.3+
    171017 K88  0.3-  0.3+    171018 I52  0.2+  0.1-    171019 104  0.1+  0.2+
    171017 K88  0.1-  0.3+    171018 I52  0.2+  0.2-
    171017 K88  0.1-  0.5+    171018 I52  0.3+  0.0
    
    Ephemeris:
    2017 US                  a,e,i = 0.83, 0.23, 1                   q = 0.6385
    Date    TT    R. A. (2000) Decl.     Delta      r     Elong.  Phase     V
    2017 09 19    05 48 01.7 +27 24 59   0.07931 1.0059    88.7    86.8    23.8
    ...
    2017 10 04    05 15 05.5 +25 29 07   0.04856 1.0186   110.8    66.6    22.0
    ...
    2017 10 12    04 24 51.9 +21 54 16   0.03228 1.0194   130.6    48.0    20.6
    ...
    2017 10 18    03 01 32.4 +13 42 34   0.02242 1.0171   157.4    22.1    19.1
    2017 10 19    02 41 38.3 +11 21 58   0.02128 1.0165   163.5    16.2    18.7
    2017 10 20    02 20 01.1 +08 41 15   0.02035 1.0159   169.6    10.1    18.4
    ...
    2017 10 26    23 57 09.9 -10 02 22   0.02054 1.0104   141.9    37.4    19.3
    ...
    2017 11 03    21 54 20.6 -22 15 43   0.03216 0.9994   102.4    75.8    21.4
    ...
    2017 11 18    20 33 20.4 -26 38 00   0.06119 0.9679    68.6   108.0    24.1
    
    A. U. Tomatic                (C) Copyright 2017 MPC           M.P.E.C. 2017-U61
    

    Read MPEC 2017-U60 Read MPEC 2017-U62


    MPEC number:

    Enter an MPEC number in one of the following forms:

    • 1997-B01 (the full form)
    • J97B01 (the packed version of the full form)
    • B01 (the abbreviated form)